Header for Extended Forecast Station List Page

Search by: ID | Name | Date | Parm | Value | Avg | % Avg
Sort by: ID | Name | Date | Parm | Value | Avg | % Avg

Enter search or view all records.

Click on id for station plot
#IDNameDateParmValueAvg% Avg
0BULO3BULLY CREEK-BULLY CREEK DAM01-13-2020INFLOW (KAF)4939
1MACI1BIG LOST-MACKAY RESERVOIR NEAR MACKAY01-13-2020INFLOW (KAF)3617206
2HWRI1BIG LOST-AT HOWELL RANCH NEAR CHILLY01-13-2020DISCHARGE (KAF)242982
3RIDI1WILLOW CREEK-RIRIE DAM01-13-2020INFLOW (KAF)4730157
4LWRI1LITTLE WOOD-LITTLE WOOD DAM01-13-2020INFLOW (KAF)323984
5DEDI1DEADWOOD-NEAR LOWMAN01-13-2020INFLOW (KAF)363990
6MYKO3MCKAY CREEK-NEAR PILOT ROCK01-13-2020DISCHARGE (KAF)364286
7ARDW1ENTIAT-NEAR ARDENVOIR01-13-2020DISCHARGE (KAF)404786
8BERO3MALHEUR-AGENCY VALLEY DAM01-13-2020INFLOW (KAF)304764
9BUDW1BUMPING-BUMPING LAKE DAM01-13-2020INFLOW (KAF)5450109
10DLGM8CLARK FORK-AT DEER LODGE01-13-2020DISCHARGE (KAF)606691
11KADW1KACHESS-KACHESS DAM01-13-2020INFLOW (KAF)8968131
12HALI1BIG WOOD-AT HAILEY01-13-2020DISCHARGE (KAF)556881
13KEDW1YAKIMA-KEECHELUS LAKE01-13-2020INFLOW (KAF)9870141
14RCCM8ROCK CREEK-NEAR CLINTON01-13-2020DISCHARGE (KAF)667292
15WRMO3MALHEUR-WARM SPRINGS DAM01-13-2020INFLOW (KAF)547572
16GIBO3UMATILLA-NEAR GIBBON01-13-2020DISCHARGE (KAF)8878114
17HOTI1BRUNEAU-NEAR HOT SPRINGS01-13-2020DISCHARGE (KAF)839290
18PIHI1PORTNEUF-AT POCATELLO01-13-2020DISCHARGE (KAF)719376
19RILW1TIETON-RIMROCK LAKE NEAR RIMROCK01-13-2020INFLOW (KAF)769878
20EASW1YAKIMA-AT EASTON01-13-2020DISCHARGE (KAF)10099101
21TNAW1TEANAWAY-BELOW FORKS01-13-2020DISCHARGE (KAF)122106115
22MAGI1BIG WOOD-MAGIC DAM01-13-2020INFLOW (KAF)8412468
23SATI1ST MARIES-NEAR SANTA01-13-2020DISCHARGE (KAF)10712685
24TEAI1TETON-NEAR ST. ANTHONY01-13-2020DISCHARGE (KAF)129128101
25STRM8ST. REGIS-NEAR ST. REGIS01-13-2020DISCHARGE (KAF)8713166
26IPDI1HENRYS FORK-ISLAND PARK DAM01-13-2020INFLOW (KAF)133131102
27CHEI1FALL RIVER-NEAR CHESTER01-13-2020DISCHARGE (KAF)151149102
28JLKW4SNAKE-JACKSON LAKE AT DAM01-13-2020INFLOW (KAF)15817093
29CLUW1CLE ELUM-CLE ELUM LAKE01-13-2020INFLOW (KAF)209171122
30BIGI1BOISE-AT GLENWOOD BRIDGE01-13-2020DISCHARGE (KAF)275179154
31UMAO3UMATILLA-NEAR UMATILLA01-13-2020DISCHARGE (KAF)14718082
32PDTO3UMATILLA-AT PENDLETON01-13-2020DISCHARGE (KAF)18219295
33CLFW1NACHES-NEAR CLIFFDEL01-13-2020DISCHARGE (KAF)15519878
34CSDI1NF PAYETTE-CASCADE DAM01-13-2020INFLOW (KAF)20721198
35PATW1METHOW-NEAR PATEROS01-13-2020DISCHARGE (KAF)20322092
36TCHW1WALLA WALLA-NEAR TOUCHET01-13-2020DISCHARGE (KAF)18722184
37ARAI1SF BOISE-ANDERSON RANCH DAM01-13-2020INFLOW (KAF)20122589
38NACW1NACHES-NEAR NACHES01-13-2020DISCHARGE (KAF)20522691
39BONM8BLACKFOOT-NEAR BONNER01-13-2020DISCHARGE (KAF)26026498
40HODO3HOOD-NEAR TUCKER BRIDGE01-13-2020DISCHARGE (KAF)310292106
41CHDW1CHELAN-LAKE CHELAN DAM01-13-2020INFLOW (KAF)23629979
42PARI1BOISE-NEAR PARMA01-13-2020DISCHARGE (KAF)370315118
43OWYO3OWYHEE-OWYHEE DAM01-13-2020INFLOW (KAF)26331683
44WSRI1WEISER-NEAR WEISER01-13-2020DISCHARGE (KAF)32233795
45UNDW1WHITE SALMON-NEAR UNDERWOOD01-13-2020DISCHARGE (KAF)30034886
46BITM8BITTERROOT-NEAR MISSOULA01-13-2020DISCHARGE (KAF)33537290
47PRTI1PRIEST-NEAR PRIEST RIVER01-13-2020DISCHARGE (KAF)458376122
48WGCM8MF FLATHEAD-NEAR WEST GLACIER01-13-2020DISCHARGE (KAF)29537778
49FCFM8NF FLATHEAD-NEAR COLUMBIA FALLS01-13-2020DISCHARGE (KAF)39440398
50JKSW4SNAKE-NEAR JACKSON01-13-2020DISCHARGE (KAF)28540570
51ANTI1HENRYS FORK-AT ST. ANTHONY01-13-2020DISCHARGE (KAF)441423104
52TONW1OKANOGAN-NEAR TONASKET01-13-2020DISCHARGE (KAF)38845685
53UMTW1YAKIMA-AT UMTANUM01-13-2020DISCHARGE (KAF)476469101
54MONO3NF JOHN DAY-AT MONUMENT01-13-2020DISCHARGE (KAF)32048166
55PITW1KLICKITAT-NEAR PITT01-13-2020DISCHARGE (KAF)36348275
56REXI1HENRYS FORK-AT REXBURG01-13-2020DISCHARGE (KAF)502496101
57PESW1WENATCHEE-AT PESHASTIN01-13-2020DISCHARGE (KAF)51753297
58ALPW4SNAKE-NEAR ALPINE01-13-2020DISCHARGE (KAF)41553977
59ABOM8CLARK FORK-ABOVE MISSOULA01-13-2020DISCHARGE (KAF)51554495
60LAUW1KETTLE-AT LAURIER01-13-2020DISCHARGE (KAF)718569126
61HHWM8SF FLATHEAD-HUNGRY HORSE DAM01-13-2020INFLOW (KAF)57557999
62PARW1YAKIMA-NEAR PARKER01-13-2020DISCHARGE (KAF)52061385
63EMMI1PAYETTE-NEAR EMMETT01-13-2020DISCHARGE (KAF)54370677
64SERO3JOHN DAY-AT SERVICE CK01-13-2020DISCHARGE (KAF)48472067
65MILI1SNAKE-AT MILNER01-13-2020DISCHARGE (KAF)107771
66TRYO3GRANDE RONDE-TROY01-13-2020DISCHARGE (KAF)76787288
67PLDI1SF SNAKE-PALISADES DAM01-13-2020INFLOW (KAF)72190180
68BELM8CLARK FORK-BELOW MISSOULA01-13-2020DISCHARGE (KAF)85192792
69HEII1SNAKE-NEAR HEISE01-13-2020DISCHARGE (KAF)80094285
70KIOW1YAKIMA-AT KIONA01-13-2020DISCHARGE (KAF)74894979
71SNAI1SNAKE-AT BLACKFOOT01-13-2020DISCHARGE (KAF)813102979
72BFTI1SNAKE-NEAR BLACKFOOT01-13-2020DISCHARGE (KAF)803107375
73SIFI1SNAKE-AB EAGLE ROCK NR IDAHO FALLS01-13-2020DISCHARGE (KAF)1006113189
74SHYI1SNAKE-NEAR SHELLEY01-13-2020DISCHARGE (KAF)951115782
75LYDM8KOOTENAI-LIBBY DAM01-13-2020INFLOW (KAF)1164126892
76SRGM8CLARK FORK-AT ST REGIS01-13-2020DISCHARGE (KAF)1081131282
77DWRI1NF CLEARWATER-DWORSHAK DAM01-13-2020INFLOW (KAF)16261551105
78MODO3DESCHUTES-AT MOODY NR BIGGS01-13-2020DISCHARGE (KAF)1430160789
79CFMM8FLATHEAD-AT COLUMBIA FALLS01-13-2020DISCHARGE (KAF)1439164787
80WHBI1SALMON-AT WHITEBIRD01-13-2020DISCHARGE (KAF)1301177373
81AFRI1SNAKE-AMERICAN FALLS RESERVOIR01-13-2020INFLOW (KAF)1407179179
82LEOI1KOOTENAI-AT LEONIA01-13-2020DISCHARGE (KAF)1534182784
83ORFI1CLEARWATER-AT OROFINO01-13-2020DISCHARGE (KAF)21112080102
84COEI1COEUR D ALENE-COEUR D ALENE LAKE01-13-2020INFLOW (KAF)2091211199
85KERM8FLATHEAD-KERR DAM01-13-2020INFLOW (KAF)1698214279
86LLKW1SPOKANE-AT LONGLAKE01-13-2020INFLOW (KAF)2320255291
87SWAI1SNAKE-BELOW SWAN FALLS01-13-2020DISCHARGE (KAF)1771274065
88SPDI1CLEARWATER-AT SPALDING01-13-2020DISCHARGE (KAF)2782375174
89NOXM8CLARK FORK-NOXON RAPIDS DAM01-13-2020INFLOW (KAF)3206461469
90WEII1SNAKE-AT WEISER01-13-2020DISCHARGE (KAF)3285478869
91CABI1CLARK FORK-CABINET GORGE DAM01-13-2020INFLOW (KAF)3578484474
92BRNI1SNAKE-BROWNLEE DAM01-13-2020INFLOW (KAF)3631513271
93ALFW1PEND OREILLE-ALBENI FALLS DAM01-13-2020INFLOW (KAF)4648587879
94ANAW1SNAKE-NEAR ANATONE01-13-2020DISCHARGE (KAF)5936870068
95LGDW1SNAKE-LOWER GRANITE DAM01-13-2020INFLOW (KAF)87181256969
96LGSW1SNAKE-LITTLE GOOSE DAM01-13-2020INFLOW (KAF)87181260969
97IHDW1SNAKE-ICE HARBOR DAM01-13-2020INFLOW (KAF)90351273371
98LMNW1SNAKE-LOWER MONUMENTAL DAM01-13-2020INFLOW (KAF)90351289270
99GCDW1COLUMBIA-GRAND COULEE DAM01-13-2020INFLOW (KAF)2003919572102
100WANW1COLUMBIA-WANAPUM DAM01-13-2020INFLOW (KAF)2403723088104
101PRWW1COLUMBIA-PRIEST RAPIDS DAM01-13-2020INFLOW (KAF)2403623335103
102CHJW1COLUMBIA-CHIEF JOSEPH DAM01-13-2020INFLOW (KAF)224962402594
103WELW1COLUMBIA-WELLS DAM01-13-2020INFLOW (KAF)230762467294
104RRHW1COLUMBIA-ROCKY REACH DAM01-13-2020INFLOW (KAF)235152510794
105MCDW1COLUMBIA-MCNARY DAM01-13-2020INFLOW (KAF)339223827889
106JDAO3COLUMBIA-JOHN DAY DAM01-13-2020INFLOW (KAF)357684054088
107TDAO3COLUMBIA-THE DALLES DAM01-13-2020INFLOW (KAF)362684321084
108BONO3COLUMBIA-BONNEVILLE DAM01-13-2020INFLOW (KAF)372244611781
109BFEI1KOOTENAI-AT BONNERS FERRY01-13-2020STAGE (FT)MMM
110DRMM8CLARK FORK-NR DRUMMOND01-13-2020DISCHARGE (KAF)170MM
111HOPI1PEND OREILLE-PEND OREILLE LAKE NR HOPE01-13-2020LAKE ELEVATION (FT)MMM
112SPOW1SPOKANE-AT SPOKANE01-13-2020DISCHARGE (KAF)1970MM
113SJMI1ST JOE-AT ST MARIES01-13-2020STAGE (FT)MMM
114CIBW1COLUMBIA-AT INTL BOUNDARY01-13-2020DISCHARGE (KAF)16842MM
115LUCI1BOISE-LUCKY PEAK DAM01-13-2020INFLOW (KAF)588MM